changsha , China , ASIA

  • Tuesday
    January 22

    Sunny  Sunny

    55 °F  32 °F

    Southeast  Southeast

        

  • Wednesday
    January 23

    Sunny  Sunny

    57 °F  37 °F

    Southeast  Southeast

        

  • Thursday
    January 24

    Cloudy  Cloudy

    59 °F  39 °F

    Northwest  Northwest

        

  • Friday
    January 25

    Cloudy  Cloudy

    52 °F  43 °F

    Northwest  Northwest

    3~4L    

  • Saturday
    January 26

    Cloudy  Cloudy

    52 °F  39 °F

    Northwest  Northwest

        

  • Sunday
    January 27

    Cloudy  Cloudy

    50 °F  39 °F

    North  North

        

  • Monday
    January 28

    Overcast  Overcast

    46 °F  41 °F

    Northwest  Northwest

        

Date   Weather Temperature Humidity Total_rain Visibility Wind
11:00 Sunny 54°F 83.4% 0mm 999.9km Southeast  0.8m/s
14:00 Sunny 54°F 83.3% 0mm 999.9km Southeast  0.7m/s
17:00 Sunny 55°F 83.7% 0mm 999.9km Southeast  0.4m/s
20:00 Sunny 49°F 84.1% 0mm 999.9km Southeast  0.9m/s
23:00 Sunny 43°F 88.3% 0mm 999.9km Southeast  0.9m/s
02:00 Sunny 36°F 98% 0mm 999.9km Southeast  0.9m/s
05:00 Sunny 33°F 97.8% 0mm 999.9km Southeast  1.0m/s
08:00 Sunny 33°F 97% 0mm 999.9km Southeast  0.4m/s
11:00 Sunny 48°F 67.6% 0mm 999.9km Southeast  1.6m/s
14:00 Sunny 57°F 77.7% 0mm 999.9km Southeast  1.4m/s
17:00 Sunny 53°F 83.6% 0mm 999.9km Northeast  0.6m/s
20:00 Sunny 47°F 85% 0mm 999.9km Southeast  1.6m/s
23:00 Sunny 40°F 86.3% 0mm 999.9km Southeast  1.8m/s
02:00 Sunny 40°F 93.8% 0mm 999.9km Southeast  1.5m/s
05:00 Sunny 40°F 98% 0mm 999.9km Southeast  1.5m/s
08:00 Sunny 38°F 96.1% 0mm 999.9km Southeast  1.0m/s
11:00 Cloudy 56°F 70.3% 0mm 999.9km Southeast  1.4m/s
14:00 Cloudy 56°F 78.8% 0mm 999.9km Southeast  1.7m/s
17:00 Cloudy 59°F 82.6% 0mm 999.9km Northeast  1.4m/s
20:00 Cloudy 53°F 89.5% 0mm 999.9km Northeast  1.5m/s
23:00 Cloudy 48°F 89.5% 0mm 999.9km Northeast  1.3m/s
02:00 Cloudy 42°F 89.2% 0mm 999.9km Northeast  1.4m/s
05:00 Cloudy 40°F 79.6% 0mm 999.9km Northeast  2.0m/s
08:00 Cloudy 42°F 73.6% 0mm 999.9km Northeast  2.5m/s
11:00 Cloudy 47°F 76.2% 0mm 999.9km Northwest  2.2m/s
14:00 Cloudy 51°F 83.3% 0mm 999.9km Northeast  3.0m/s
17:00 Cloudy 51°F 82.8% 0mm 999.9km Northeast  2.9m/s
20:00 Cloudy 48°F 87.3% 0mm 999.9km Northeast  2.6m/s
23:00 Cloudy 47°F 90.5% 0mm 999.9km Northeast  2.8m/s
02:00 Cloudy 46°F 95.8% 0mm 999.9km Northeast  2.8m/s
05:00 Cloudy 45°F 98% 0mm 999.9km Northwest  1.5m/s
08:00 Cloudy 43°F 97.8% 0mm 999.9km Northeast  2.0m/s
11:00 Cloudy 47°F 81.6% 0mm 999.9km Northeast  2.3m/s
14:00 Cloudy 51°F 85.2% 0mm 999.9km Northeast  2.8m/s
17:00 Cloudy 50°F 89.6% 0mm 999.9km Northeast  2.4m/s
20:00 Cloudy 45°F 90.1% 0mm 999.9km Northwest  1.3m/s
23:00 Cloudy 41°F 90.5% 0mm 999.9km Northeast  1.2m/s
02:00 Cloudy 41°F 98% 0mm 999.9km Northeast  1.2m/s
05:00 Cloudy 40°F 91.1% 0mm 999.9km Northeast  1.3m/s
08:00 Cloudy 43°F 82.2% 0mm 999.9km Northeast  2.1m/s
11:00 Cloudy 45°F 75.7% 0mm 999.9km Southeast  1.8m/s
14:00 Cloudy 50°F 83.5% 0mm 999.9km Southeast  2.7m/s
17:00 Cloudy 48°F 82.4% 0mm 999.9km Northeast  1.9m/s
20:00 Cloudy 45°F 85.6% 0mm 999.9km Northeast  1.7m/s
23:00 Cloudy 42°F 88.8% 0mm 999.9km Northwest  1.9m/s
02:00 Cloudy 41°F 98% 0mm 999.9km Northeast  0.7m/s
05:00 Cloudy 40°F 92.2% 0mm 999.9km Northwest  2.1m/s
08:00 Cloudy 40°F 80.9% 0mm 999.9km Northeast  1.2m/s
11:00 Overcast 44°F 76.9% 0mm 999.9km Northwest  2.0m/s
14:00 Overcast 46°F 80.8% 0mm 999.9km Northeast  1.8m/s
17:00 Overcast 46°F 84.9% 0mm 999.9km Northwest  1.4m/s
20:00 Overcast 44°F 85.7% 0mm 999.9km Northeast  1.7m/s
23:00 Overcast 42°F 86.5% 0mm 999.9km Northwest  2.0m/s
02:00 Overcast 42°F 88.1% 0mm 999.9km Northwest  1.5m/s
05:00 Overcast 41°F 89.1% 0mm 999.9km Northwest  1.3m/s